Temp
13 13 13 12 13 14 14 14 14 14 13 11 10 10 11 11 12 10 10 9 10 11 11 11 11 10 9 9 8 8 7 6 5 5 5 5 5 6 7 7 8 9 9 11
13 13 12 13 14 14 14 14 13 12 13 11 10 11 11 11 12 11 11 10 10 11 10 10 10 9 9 9 8 7 6 6 5 4 4 3 4 5 6 6 7 8 9 10
14 12 12 13 12 13 11 13 12 11 10 10 10 12 13 14 14 13 13 12 12 11 10 10 9 9 8 8 7 6 6 5 4 4 4 4 4 5 6 6 7 8 8 11
11 11 12 13 12 11 14 11 11 10 9 13 11 15 14 14 14 13 11 10 9 10 11 10 9 8 8 7 7 6 5 5 4 4 4 3 3 3 3 4 5 7 7 11
13 11 12 13 11 11 12 10 10 10 10 10 12 10 13 13 15 13 11 10 9 9 9 9 9 9 8 7 7 6 5 4 4 3 3 3 3 4 4 5 5 7 8 9
10 10 10 10 10 10 10 10 10 9 8 7 12 11 14 13 15 15 13 11 10 10 9 9 9 8 7 7 6 5 5 4 4 3 3 3 3 4 4 5 5 5 7 11
9 10 9 10 11 10 10 9 8 10 8 11 10 9 12 14 14 14 13 11 11 10 9 8 7 7 6 6 6 5 4 4 3 3 2 3 3 3 3 4 4 4 5 8
9 12 10 9 10 10 10 10 8 13 11 11 10 12 15 13 14 14 13 13 12 11 8 7 8 7 6 6 6 5 4 4 3 3 2 2 2 3 3 4 4 4 4 6
8 11 8 8 8 9 10 8 9 5 1 7 11 12 13 13 13 12 12 12 12 11 9 8 8 7 5 5 5 5 4 3 3 2 2 2 2 3 3 3 4 4 5 6
9 11 6 8 9 9 10 9 9 5 12 12 10 11 13 15 13 11 11 10 11 10 9 7 6 6 5 5 5 4 4 3 3 3 2 2 2 2 3 3 3 4 5 6
5 9 8 7 7 8 7 7 9 9 8 9 8 13 10 14 14 12 11 10 9 8 6 5 5 6 6 5 5 4 4 3 3 2 3 2 2 2 2 3 3 3 4 6
9 8 7 8 6 7 8 10 10 8 9 4 7 11 13 12 13 12 11 10 9 8 6 4 5 5 5 5 5 4 4 3 2 2 2 2 2 2 2 2 2 3 4 5
9 8 7 9 7 6 8 8 9 8 6 5 9 12 11 10 10 9 9 8 8 8 6 4 4 4 4 5 4 4 4 3 3 2 3 3 2 2 2 3 3 3 3 4
10 4 11 13 13 8 6 6 8 8 4 7 8 11 13 9 7 8 7 5 5 4 5 3 2 3 4 5 5 4 4 3 3 2 3 2 2 2 2 2 2 3 4 5
10 9 4 3 9 10 9 7 6 7 9 10 14 9 13 10 8 8 6 7 3 3 1 1 -1 -0 3 4 4 4 4 3 3 2 3 3 2 2 2 2 3 4 5 5
8 6 4 7 3 5 6 7 6 7 4 6 8 10 13 13 10 5 6 4 4 3 1 0 -0 0 1 3 4 4 4 4 3 2 2 3 3 2 2 2 3 3 4 5
8 6 6 9 2 4 9 8 8 6 6 9 9 14 12 11 11 10 10 8 6 5 5 2 1 1 3 5 5 5 4 4 4 3 3 3 3 3 2 2 2 3 3 4
7 7 7 10 9 11 12 10 9 9 8 7 9 10 10 10 10 9 9 10 9 6 5 4 3 4 5 5 5 5 4 4 4 4 3 3 3 3 3 3 3 2 3 3
7 8 8 10 7 11 14 9 8 10 13 10 10 11 10 9 8 9 8 8 9 7 6 7 8 7 6 6 6 5 4 4 4 4 4 3 3 3 3 3 3 3 3 3
7 8 11 8 10 10 13 11 9 11 12 13 9 10 9 9 12 11 9 8 7 9 9 8 8 7 7 6 5 5 4 4 4 4 4 4 4 4 3 3 3 3 3 3
6 6 11 10 11 10 11 10 8 12 15 13 10 11 8 9 10 10 8 8 8 8 9 9 7 7 7 6 5 4 4 5 6 5 4 4 4 4 4 4 4 4 4 3
6 8 7 8 10 11 8 8 13 13 11 12 11 12 9 7 7 10 9 8 7 7 7 7 7 6 6 6 5 4 4 7 5 5 4 5 4 4 4 3 3 3 4 4
9 8 7 9 10 10 8 12 10 9 11 11 12 11 11 11 10 8 8 9 7 7 7 7 7 6 6 6 6 6 7 5 5 4 4 4 4 4 4 4 3 3 3 3
4 6 5 7 9 8 7 8 8 8 9 10 10 11 10 11 10 9 8 7 5 6 6 6 6 5 5 6 6 7 7 7 6 5 4 4 3 3 3 3 3 3 3 3
5 6 4 4 7 7 8 7 8 7 7 8 8 8 8 8 8 8 7 6 6 6 6 7 7 6 7 7 7 7 6 6 6 6 6 5 4 4 4 4 4 4 4 4
3 5 8 8 9 11 13 11 8 7 7 7 7 7 7 6 6 7 5 6 7 7 7 6 7 7 8 7 8 7 6 6 6 5 5 5 5 4 4 4 4 4 4 3
Height
829 838 843 845 842 838 838 842 844 839 838 842 840 834 821 815 813 816 816 817 813 811 805 805 808 811 811 809 808 806 804 802 800 797 794 791 789 788 787 785 783 781 778 776
837 842 844 841 840 838 841 843 845 844 838 844 836 824 816 812 808 808 811 812 811 810 808 807 808 809 809 809 807 805 803 801 799 797 796 792 789 786 785 784 783 779 774 771
840 849 845 842 846 841 850 846 851 853 851 842 843 825 811 804 804 803 804 804 805 807 806 806 807 808 808 808 806 804 802 800 799 797 794 791 788 787 785 784 780 775 773 767
851 849 846 845 848 849 843 852 853 853 858 841 842 832 812 809 807 805 806 807 808 807 805 804 805 807 807 807 805 804 802 801 799 797 794 792 791 789 787 784 780 775 770 762
845 848 846 843 850 853 849 853 853 853 856 856 841 858 815 812 804 806 804 805 806 806 806 804 803 806 807 806 805 804 803 801 799 797 795 792 790 789 787 784 781 776 771 766
853 853 854 853 852 852 855 853 854 859 864 884 841 852 821 814 804 802 800 801 803 803 804 802 803 805 806 805 805 803 803 801 799 797 795 793 790 788 787 783 779 778 770 768
859 854 855 855 853 853 853 860 882 866 879 860 850 859 821 806 802 801 802 803 801 801 802 801 802 803 805 805 804 803 802 800 799 797 796 793 790 789 787 783 781 779 773 772
864 853 857 860 858 853 854 858 883 861 861 859 855 838 808 805 799 798 799 798 798 799 802 800 800 801 804 805 804 802 802 801 799 797 796 794 791 790 788 784 781 780 781 775
864 855 861 861 861 861 854 869 862 893 921 883 842 824 807 802 801 799 799 797 796 797 799 798 799 800 802 803 803 801 801 800 799 797 796 794 792 790 789 785 784 782 778 777
845 854 868 862 861 860 856 859 867 888 856 856 847 835 817 800 800 802 800 800 797 796 796 797 798 799 800 801 802 802 801 800 799 796 796 795 792 790 787 789 787 784 782 781
851 847 866 866 868 861 869 873 863 868 874 875 879 824 808 797 795 798 798 796 798 797 798 798 797 798 799 801 801 802 802 801 800 798 796 796 794 791 789 788 788 788 787 783
834 846 871 861 864 862 861 850 855 871 872 896 881 832 791 796 792 794 794 795 793 795 796 797 798 798 798 800 801 801 801 802 801 800 799 797 795 793 792 790 787 785 784 785
830 850 870 853 865 865 861 856 852 863 874 887 863 824 797 799 798 796 796 794 794 795 795 796 797 797 797 798 800 801 801 801 802 801 800 799 796 794 792 791 789 788 788 787
823 855 833 832 826 846 863 864 854 858 891 863 849 812 794 802 806 796 797 796 795 793 794 794 795 795 795 796 798 800 801 802 801 802 801 800 798 796 795 793 792 791 791 790
825 836 861 863 838 836 838 852 858 857 839 837 800 825 788 792 796 791 790 788 793 792 793 792 793 793 794 795 797 798 801 802 802 802 801 800 799 797 795 794 793 793 792 790
828 849 857 850 864 858 851 842 846 841 854 842 828 813 778 776 782 791 788 789 789 786 787 787 787 790 792 792 794 797 799 800 802 803 802 801 800 799 798 796 795 794 794 794
829 843 847 840 869 863 833 821 823 828 826 816 823 776 775 776 776 777 775 777 780 778 779 782 780 782 786 788 791 793 797 800 801 802 803 803 802 801 800 799 798 797 797 797
824 831 840 829 835 824 797 797 804 807 802 807 794 781 775 776 774 772 770 769 771 773 774 776 776 779 783 785 789 793 796 798 801 802 802 803 804 804 802 802 802 802 801 801
814 819 834 823 845 807 784 797 804 797 771 778 780 770 773 777 776 766 761 762 763 767 768 771 773 775 779 783 786 789 794 797 799 801 803 803 804 805 806 805 805 805 806 806
814 812 807 830 816 816 781 782 789 789 783 759 772 770 773 774 770 764 760 758 759 763 766 769 772 774 777 781 785 787 790 793 795 798 800 802 803 805 805 807 807 807 808 808
820 824 801 808 804 796 779 782 787 794 770 759 767 765 772 773 764 762 762 759 757 759 764 768 771 771 775 779 782 785 787 789 792 795 798 800 802 803 805 806 807 808 809 809
804 806 814 816 805 791 776 784 774 757 757 757 761 762 766 767 764 760 760 760 759 760 763 767 770 773 776 779 782 785 786 788 791 794 796 797 800 802 803 805 806 807 808 809
780 776 790 781 771 759 764 749 751 753 753 756 757 760 759 760 759 759 760 759 759 761 763 765 768 772 775 777 779 781 784 788 791 793 796 797 798 800 802 803 804 805 806 807
784 773 782 778 761 760 757 753 754 754 753 752 753 756 758 757 757 757 758 758 759 760 762 764 768 771 772 775 777 780 782 785 788 790 793 795 797 798 799 801 802 803 804 804
764 763 776 776 758 758 751 751 745 748 750 751 752 753 754 756 756 756 756 755 756 758 760 762 764 767 769 773 775 778 781 781 783 785 788 789 792 794 795 796 798 798 799 801
753 755 748 748 736 737 731 733 738 743 743 745 749 751 752 753 754 753 754 754 753 754 757 759 761 763 765 768 770 774 776 779 780 781 783 785 787 789 790 792 793 794 795 797
Wind_Speed
4 5 2 3 1 2 2 1 3 3 1 4 6 10 13 9 5 7 8 8 6 6 6 8 10 8 5 3 5 9 12 14 14 16 19 14 9 9 6 9 10 12 11 15
5 2 2 1 0 2 3 1 3 5 2 3 7 16 10 5 5 7 8 7 6 4 4 8 9 8 6 5 6 9 10 12 12 13 13 12 15 6 9 11 10 9 11 12
4 1 3 0 3 3 2 2 1 4 7 4 7 7 5 3 2 3 5 4 3 5 7 4 8 8 6 4 6 8 8 10 10 12 12 11 5 5 7 11 11 8 7 9
4 2 1 1 2 1 2 2 0 3 5 3 3 4 4 3 5 5 8 6 6 6 5 3 6 7 7 3 5 6 7 9 10 10 9 8 7 6 10 14 13 10 10 9
2 0 2 2 1 2 2 0 0 1 1 3 3 2 6 3 3 8 8 7 6 6 7 6 5 6 3 2 4 5 6 6 8 9 7 6 6 8 10 11 10 8 11 12
2 1 2 1 0 1 2 1 3 3 1 3 2 3 5 2 4 4 4 5 6 6 6 6 3 4 4 2 4 4 5 5 7 8 7 7 7 8 10 12 13 12 12 10
5 2 1 2 1 1 2 3 4 5 4 4 2 2 8 4 4 4 6 6 6 5 4 5 4 4 5 3 5 4 4 5 7 7 6 6 6 6 7 11 13 14 11 12
4 5 1 4 1 2 2 3 4 4 2 5 3 5 4 5 3 3 5 4 3 3 3 6 5 5 5 3 4 5 4 4 7 7 6 5 5 6 7 8 9 11 9 9
4 3 2 3 2 1 1 1 1 6 1 2 3 7 6 4 6 6 6 5 4 3 4 6 4 4 5 3 2 6 5 5 5 6 7 7 6 6 6 7 6 7 10 9
5 3 1 1 1 1 0 2 3 3 1 4 5 5 5 5 7 7 7 8 5 3 4 4 4 5 4 2 0 2 5 6 7 7 6 8 9 7 7 5 4 5 6 4
4 3 3 2 4 5 1 1 2 2 3 4 1 6 7 6 6 9 9 8 7 6 5 3 4 5 3 2 1 1 3 6 6 6 9 8 6 5 5 5 4 3 2 4
6 5 3 5 2 1 2 2 4 4 4 1 2 7 3 7 5 5 8 8 5 5 5 4 5 6 4 2 1 1 2 4 6 6 7 8 7 5 5 5 5 5 5 3
8 1 2 5 3 3 3 4 3 4 3 5 4 6 2 5 7 7 8 8 7 5 5 4 4 7 6 4 2 0 2 3 5 5 6 7 7 6 5 6 5 6 4 4
5 3 6 6 4 4 3 4 5 5 3 3 7 11 11 8 7 8 8 7 8 7 7 5 5 8 7 6 3 2 1 2 4 4 6 7 8 8 6 6 6 6 5 6
3 5 3 3 2 3 5 5 7 9 7 6 12 10 18 7 8 8 8 6 5 9 7 7 5 8 9 9 6 4 3 1 3 4 6 8 9 9 8 8 8 8 8 9
2 3 3 3 2 2 5 8 10 12 2 11 11 22 22 20 8 5 8 7 8 8 9 8 7 12 13 13 11 8 6 4 2 3 4 5 7 10 10 9 9 9 9 9
7 6 3 3 1 3 8 9 15 5 6 9 8 19 7 6 6 6 7 7 8 8 8 9 10 18 21 17 15 14 10 7 3 2 3 4 5 8 9 10 10 11 11 10
7 5 2 2 1 3 7 4 6 13 8 16 11 12 10 8 6 8 7 7 7 7 8 8 13 19 19 18 17 14 14 11 7 4 3 2 4 4 6 8 9 9 9 10
1 5 3 3 3 6 11 3 6 8 9 17 22 18 10 5 6 6 6 9 9 8 10 16 20 21 21 22 21 19 17 14 12 9 7 5 4 4 3 4 6 6 7 7
3 2 3 3 4 7 8 4 4 3 7 3 10 10 5 3 3 4 5 4 7 9 12 16 19 19 23 23 23 22 21 18 15 13 10 8 7 6 4 3 3 4 4 6
4 2 8 7 5 6 8 6 6 4 6 4 5 5 6 5 5 2 5 5 2 11 12 15 21 23 25 26 25 23 21 22 16 14 12 10 9 9 8 6 4 4 3 3
9 10 4 2 5 9 9 5 9 6 3 5 4 3 4 7 7 4 4 3 3 7 11 15 18 17 21 26 27 24 24 18 17 17 16 14 12 11 10 9 8 8 6 5
5 8 8 12 9 4 11 6 8 4 5 5 4 5 3 3 3 5 4 1 3 7 9 12 16 17 20 25 27 26 22 19 19 19 18 16 15 13 12 11 11 11 10 9
4 4 4 3 7 10 9 7 4 6 7 4 4 3 4 3 3 4 3 3 3 7 11 12 14 17 20 23 25 23 17 18 19 20 19 18 17 16 15 14 13 13 13 13
6 11 7 4 7 6 8 10 11 9 9 6 4 6 7 4 6 4 3 4 6 8 10 13 17 20 22 22 23 22 19 19 21 21 20 20 19 19 17 17 16 16 14 14
5 7 7 6 9 6 7 3 6 10 11 7 7 4 4 6 7 4 5 6 6 10 10 14 17 19 19 20 22 23 23 22 21 23 23 23 22 22 21 19 18 18 18 17
Wind_Direction
12 70 130 183 201 149 142 220 264 262 51 335 244 270 272 267 255 259 257 267 276 319 299 198 205 219 225 271 309 321 330 340 339 345 344 345 340 323 306 306 299 291 286 249
25 108 211 235 328 115 78 255 274 281 253 352 302 291 278 237 231 206 231 250 264 280 255 242 217 214 228 268 308 325 340 340 343 344 341 330 320 324 326 318 304 305 301 254
120 84 319 352 41 85 44 221 232 254 322 254 319 288 352 26 234 212 243 241 274 272 272 238 213 212 220 248 317 335 338 340 345 342 343 344 1 340 341 333 331 337 324 237
85 288 62 27 55 17 283 159 294 313 11 280 35 278 325 341 287 272 269 273 269 273 274 245 202 196 215 267 320 341 334 340 344 343 350 5 357 344 332 328 332 334 15 131
200 5 57 95 63 351 284 321 244 0 320 343 338 57 268 338 297 274 272 253 257 258 254 264 234 212 213 248 316 344 340 340 345 343 346 357 357 349 346 342 354 357 41 55
102 288 36 106 273 104 321 312 42 56 43 26 280 108 287 214 218 289 280 251 251 245 256 275 258 185 196 238 312 349 357 355 357 350 350 352 351 6 3 3 7 12 43 51
350 339 359 37 22 34 79 46 338 353 10 215 11 32 247 248 246 229 235 240 222 217 245 274 237 220 188 256 313 341 2 3 2 1 1 1 351 359 10 13 9 14 30 56
139 317 18 2 27 173 71 129 150 232 288 276 -0 236 229 217 186 199 202 203 184 235 240 248 239 203 192 224 307 326 16 7 6 8 8 7 360 1 21 28 12 10 30 58
128 284 323 47 350 24 243 40 157 102 35 25 255 284 301 216 243 230 230 213 227 194 190 238 214 202 172 191 317 326 349 9 21 18 10 10 20 17 30 34 12 5 19 39
192 73 279 323 350 346 309 141 50 8 350 302 291 285 245 250 232 241 251 240 221 197 184 207 215 199 171 163 96 323 335 359 8 8 38 20 8 16 15 42 38 16 9 31
137 105 281 30 196 180 48 43 75 120 133 185 283 275 208 215 204 205 232 237 225 228 224 208 212 194 174 154 105 20 350 351 19 11 4 28 31 25 21 21 40 84 40 48
190 133 164 204 221 6 299 221 159 124 269 288 153 274 205 222 214 203 226 237 222 205 220 204 212 188 184 179 156 6 27 13 18 14 15 15 28 38 40 35 29 39 55 62
187 309 37 347 6 8 229 206 153 115 89 212 148 263 343 275 262 245 234 243 246 204 202 198 191 207 195 207 176 211 44 33 26 18 24 23 21 35 45 46 49 63 64 74
107 104 164 194 191 125 164 215 187 143 126 203 228 274 285 270 256 262 250 253 245 227 209 211 205 217 183 183 204 176 98 54 52 38 38 28 27 36 47 68 85 100 103 108
148 173 140 257 206 188 213 180 185 193 203 187 268 237 265 258 240 246 249 250 220 243 207 209 206 208 184 169 186 192 166 104 45 44 51 27 25 36 49 66 82 92 106 100
153 172 116 309 13 92 267 225 208 218 211 265 280 283 270 275 257 265 265 254 242 243 226 204 201 200 198 193 181 189 190 174 126 82 57 44 29 38 47 58 73 85 90 99
152 143 124 244 351 11 300 223 200 192 201 190 205 245 277 258 239 260 273 255 236 228 219 210 195 196 198 195 184 182 180 177 170 134 75 73 60 44 50 56 64 76 85 97
149 122 88 156 77 211 239 168 179 209 225 215 258 265 247 254 260 263 235 241 241 218 206 206 195 192 190 182 181 175 178 175 180 175 149 118 104 71 57 59 65 69 78 91
12 124 142 165 202 314 312 194 161 180 273 211 225 249 268 295 299 294 248 217 223 209 199 200 194 183 180 179 175 172 176 181 183 185 183 178 164 142 125 103 91 88 86 88
66 58 143 158 208 216 228 185 175 198 286 204 186 234 243 126 335 271 334 317 226 214 197 187 183 178 179 179 178 176 178 184 193 192 187 185 177 179 160 135 115 108 113 114
125 65 203 194 227 277 251 159 149 100 241 151 185 229 168 198 215 264 334 343 287 198 189 182 178 181 185 179 180 185 186 195 191 188 186 188 189 189 189 182 169 161 161 164
159 163 180 120 220 258 160 75 178 201 184 156 170 183 203 243 279 296 306 3 110 133 161 180 182 186 184 185 185 189 200 196 192 194 193 188 190 192 195 200 199 193 195 199
202 180 177 187 202 237 203 214 212 160 158 185 172 194 198 242 239 262 272 218 170 179 173 188 195 189 190 192 195 195 205 198 197 199 203 202 197 199 200 205 209 212 212 217
259 175 176 110 220 237 230 249 243 213 226 218 182 203 192 233 265 269 276 244 193 193 192 191 192 198 199 201 206 213 202 198 200 204 206 208 211 211 213 214 216 221 224 222
192 151 160 264 276 274 252 228 234 223 232 235 204 199 216 224 256 245 255 230 219 219 211 204 202 209 215 210 214 214 215 206 207 210 212 213 216 219 222 226 229 235 238 243
187 167 188 211 204 192 247 213 192 211 223 199 199 236 237 205 232 213 246 253 233 222 215 215 220 222 225 219 219 216 213 217 217 217 217 218 220 222 226 231 236 240 244 243